Weather in Levoberezhnoye

Russia / Chechen Republic     43°34′18″N   45°37′55″E
temp.,
°C
wind,
m/s
gust,
m/s
humid.,
%
clouds,
%
prec.,
mm/h
press.,
hPa
HPBL,
m
28 september, tue
tue2800:00+15wnw2458100 0.0 1017286
03:00+15nw2362100 0.0 1017189
06:00+14nne116493 0.0 101855
09:00+15ne2258100 0.0 1018507
12:00+15ene235399 0.0 1018567
15:00+16ne334792 0.0 1019630
18:00+15w0150100 0.0 102046
21:00+15nw1255100 0.0 102178
29 september, wed
wed2900:00+14nnw2261100 0.0 102175
03:00+14ne2263100 0.0 102185
06:00+14ne2366100 0.0 1022143
09:00+14ene3566100 0.0 1022382
12:00+14ene4666100 0.0 1022722
15:00+15ene4555100 0.0 1022862
18:00+14e3756100 0.0 1023391
21:00+12e4774100 0.3 1024456
30 september, thu
thu3000:00+12ene2677100 0.1 1024454
03:00+10ne4887100 1.2 1024562
06:00+10nne4793100 5.3 1025499
09:00+10n3494100 11.2 1026375
12:00+9nne4591100 4.9 1027415
15:00+10ne4689100 7.1 1027555
18:00+9ne3690100 1.6 1028411
21:00+9ne1391100 2.9 1029224
1 october, fri
fri100:00+10nne1289100 0.8 1029169
03:00+9nne2493100 1.4 1028319
06:00+10ene3890100 1.7 1029685
09:00+10ene3885100 2.5 1030536
12:00+10ene3980100 0.5 1030760
15:00+11e3880100 0.8 1030623
18:00+11ne2781100 0.1 1030380
21:00+10e2885100 1.3 1031430
2 october, sat
sat200:00+10e3985100 0.1 1030486
03:00+10ene2779100 0.1 1029336
06:00+10ene3976100 0.0 1029423
09:00+11e5107093 0.0 1030796
12:00+14e8959100 0.0 10291413
15:00+14ene786098 0.0 10291238
18:00+13ene5106593 0.0 1029677
21:00+12ene5126895 0.0 1029607